Location: Dammartin
(48.9032°N, 1.6195°E)
Time: 08:28:47
(UTC+00:00)

PRISM - Visible Passes

Search period start: 03 December 2023 00:00
Search period end: 13 December 2023 00:00
Orbit: 523 x 542 km, 98.2° (Epoch: 02 December)

Date Brightness Start Highest point End Pass type
(mag) Time Alt. Az. Time Alt. Az. Time Alt. Az.
03 Dec ? 06:50:01 10° NE 06:52:35 17° E 06:55:08 10° SE visible
04 Dec ? 06:40:54 10° ENE 06:42:51 13° E 06:44:46 10° ESE visible
05 Dec ? 06:32:21 10° ENE 06:33:04 10° E 06:33:46 10° E visible
12 Dec ? 06:56:22 10° NE 06:59:04 18° E 07:01:44 10° SE visible
